Houlton, ME

8:28 AM EDT on April 25, 2018 (GMT -0400)
Houlton International

Weather History for KHUL - April, 2014

Change the Weather History Date:

Saturday, April 26, 2014

  Actual Average Record
Temperature  
Mean Temperature 39 °F 44 °F  
Max Temperature 52 °F 56 °F 76 °F (1982)
Min Temperature 25 °F 32 °F 17 °F (1972)
Degree Days  
Heating Degree Days 26 21  
Month to date heating degree days 706 697  
Since 1 July heating degree days 8797 8493  
Cooling Degree Days 0 0  
Month to date cooling degree days 0 0  
Year to date cooling degree days 0 0  
Moisture  
Dew Point 28 °F    
Average Humidity 67    
Maximum Humidity 100    
Minimum Humidity 33    
Precipitation  
Precipitation T in 0.13 in 1.00 in (1951)
Month to date precipitation 3.41 3.33  
Year to date precipitation 11.47 10.78  
Sea Level Pressure  
Sea Level Pressure 29.88 in    
Wind  
Wind Speed 2 mph (North)    
Max Wind Speed 10 mph    
Max Gust Speed 19 mph    
Visibility 10 miles    
Events Rain    
T = Trace of Precipitation, MM = Missing Value Source: NWS Daily Summary

Daily Weather History Graph

Daily Weather History Graph

Search for Another Location

Airport or City:

Astronomy

Apr. 26, 2014 Rise Set
Actual Time 5:25 AM EDT 7:32 PM EDT
Civil Twilight 4:53 AM EDT 8:05 PM EDT
Nautical Twilight 4:13 AM EDT 8:46 PM EDT
Astronomical Twilight 3:28 AM EDT 9:31 PM EDT
Moon 3:58 AM EDT (4/26) 4:48 PM EDT (4/26)
Length of Visible Light 15h 12m
Length of Day
14h 07m
Waning Crescent, 8% of the Moon is Illuminated
Apr 26
Waning Crescent
Apr 29
New
May 6
First Quarter
May 14
Full
May 21
Last Quarter

Hourly Weather History & Observations

Time (EDT) Temp. Windchill Dew Point Humidity Pressure Visibility Wind Dir Wind Speed Gust Speed Precip Events Conditions
12:53 AM 28.0 °F - 26.1 °F 92% 29.92 in 10.0 mi Calm Calm - N/A   Clear
1:53 AM 27.0 °F - 26.1 °F 96% 29.91 in 10.0 mi Calm Calm - N/A   Clear
2:53 AM 27.0 °F 23.0 °F 26.1 °F 96% 29.89 in 10.0 mi South 3.5 mph - N/A   Clear
3:53 AM 26.1 °F - 24.1 °F 92% 29.90 in 10.0 mi Calm Calm - N/A   Clear
4:53 AM 25.0 °F - 23.0 °F 92% 29.90 in 10.0 mi Calm Calm - N/A   Clear
5:53 AM 26.1 °F - 24.1 °F 92% 29.90 in 10.0 mi Calm Calm - N/A   Clear
6:53 AM 30.0 °F - 28.0 °F 92% 29.91 in 10.0 mi Calm Calm - N/A   Clear
7:53 AM 35.1 °F - 30.9 °F 85% 29.92 in 10.0 mi Calm Calm - N/A   Partly Cloudy
8:53 AM 39.0 °F - 32.0 °F 76% 29.92 in 10.0 mi Calm Calm - N/A   Overcast
9:53 AM 41.0 °F - 32.0 °F 70% 29.91 in 10.0 mi Calm Calm - N/A   Clear
10:53 AM 45.0 °F 43.5 °F 28.9 °F 53% 29.89 in 10.0 mi NE 3.5 mph - N/A   Overcast
11:53 AM 46.9 °F - 25.0 °F 42% 29.88 in 10.0 mi Calm Calm - N/A   Mostly Cloudy
12:53 PM 50.0 °F - 25.0 °F 38% 29.86 in 10.0 mi North - - N/A   Mostly Cloudy
1:53 PM 51.1 °F - 24.1 °F 35% 29.84 in 10.0 mi NNE 6.9 mph - N/A   Overcast
2:53 PM 51.1 °F - 25.0 °F 36% 29.84 in 10.0 mi North 8.1 mph - N/A   Overcast
3:53 PM 50.0 °F - 23.0 °F 35% 29.84 in 10.0 mi NW 4.6 mph - N/A   Overcast
4:53 PM 48.9 °F - 25.0 °F 39% 29.84 in 10.0 mi North 4.6 mph - N/A   Overcast
5:53 PM 48.0 °F - 25.0 °F 41% 29.84 in 10.0 mi North 4.6 mph - N/A   Overcast
6:53 PM 46.9 °F - 25.0 °F 42% 29.85 in 10.0 mi Calm Calm - N/A   Overcast
7:53 PM 43.0 °F - 30.0 °F 60% 29.87 in 10.0 mi Calm Calm - N/A   Overcast
8:53 PM 39.9 °F - 34.0 °F 79% 29.88 in 10.0 mi Calm Calm - 0.00 in Rain Light Rain
9:53 PM 37.9 °F - 36.0 °F 93% 29.88 in 10.0 mi Calm Calm - 0.00 in   Overcast
10:53 PM 39.9 °F - 34.0 °F 79% 29.88 in 10.0 mi Calm Calm - N/A   Overcast
11:53 PM 37.9 °F - 35.1 °F 89% 29.88 in 10.0 mi Calm Calm - 0.00 in Rain Light Rain